[[{"header":{"parameterUnit":"m.s-1","parameterCategory":1,"la1":30.2991,"la2":30.254,"lo1":-89.0895,"lo2":-89.0444,"dy":0.0017,"dx":0.0017,"nx":28,"ny":28,"refTime":"2025-03-23T21:00:00:Z","depth":0,"parameterNumber":2,"parameterNumberName":"U-component_of_WINDS"},"data":[0,0,0,0,0,0,0,0,0,0,0,0,0,0,0,0,0,0,0,0,0,0,0,0,0,0,0,0,0,0,0,0,0,0,0,0,0,0,0,0,0,0,0,0,0,0,0,0,0,0,0,0,0,0,0,0,0,0,0.8925,0.8927,0,0.9065,0.9067,0.9069,0.9111,0.911,0.911,0.9109,0.9252,0.9256,0.926,0,0,0,0,0,0,0,0,0,0,0,0,0,0.8693,0.8697,0.8925,0.8927,0.8929,0.9065,0.9067,0.9069,0.9111,0.911,0.911,0.9109,0.925,0.9255,0.9261,0,0,0,0,0,0,0,0,0,0,0,0,0,0.8809,0.8698,0.8925,0.8966,0.8971,0.9065,0.9067,0.907,0.9111,0.911,0.9109,0.9108,0.9248,0.9255,0.9262,0.9324,0,0,0.9282,0.9285,0,0,0,0,0,0,0,0,0.8802,0.8818,0.8958,0.8964,0.8969,0.907,0.9037,0.9155,0.9112,0.9058,0.9109,0.9108,0.9192,0.9203,0.9232,0.933,0.9336,0.9283,0.9287,0.9289,0.9291,0,0,0,0,0,0,0,0.8794,0.8812,0.8981,0.896,0.8967,0.8977,0.8993,0.906,0.9129,0.9063,0.9066,0.9082,0.9195,0.9225,0.9235,0.9339,0.9282,0.9288,0.9292,0.9295,0.9494,0.9495,0,0,0,0,0,0,0.8779,0.8805,0.8976,0.8985,0.8882,0.8982,0.9,0.9039,0.9129,0.9141,0.9083,0.9084,0.9214,0.9228,0.9241,0.9319,0.9289,0.9296,0.9299,0.9493,0.9494,0.9496,0,0,0,0,0,0,0.8774,0.8794,0.8971,0.8896,0.8919,0.8987,0.9031,0.9042,0.9072,0.9144,0.9156,0.9102,0.9214,0.9231,0.9303,0.9324,0.9299,0.9305,0.9491,0.9493,0.9495,0.9475,0,0,0,0,0,0,0.8767,0.8792,0.8817,0.8896,0.8923,0.903,0.9032,0.9045,0.9084,0.9086,0.9165,0.9177,0.9215,0.9292,0.9309,0.9333,0.931,0.949,0.9492,0.9495,0.9474,0.9476,0.9478,0,0,0,0,0,0.8759,0.8806,0.8818,0.8838,0.8955,0.9032,0.9047,0.909,0.9086,0.9111,0.9156,0.9174,0.9319,0.9299,0.9319,0.9345,0.9489,0.9492,0.9494,0.9473,0.9476,0.9478,0,0,0,0,0,0,0.8727,0.8817,0.8831,0.8905,0.896,0.9039,0.9072,0.9091,0.9149,0.9148,0.9199,0.9217,0.9284,0.9322,0.9298,0.9409,0.9404,0.9411,0.9382,0.9385,0.9386,0.9376,0.9315,0,0,0,0,0,0.8728,0.8783,0.8859,0.8917,0.8944,0.9003,0.9038,0.9066,0.9125,0.9149,0.92,0.9256,0.9315,0.9352,0.9409,0.948,0.9497,0.9507,0.9509,0.951,0.9515,0.9554,0.956,0.9505,0.9505,0.9505,0,0,0.8732,0.8788,0.882,0.8912,0.8958,0.9013,0.9022,0.908,0.9122,0.9158,0.9228,0.9267,0.9334,0.9404,0.9438,0.9438,0.9534,0.9514,0.9514,0.9519,0.9558,0.9563,0.9567,0.9507,0.9507,0.9507,0,0,0.8767,0.8815,0.8868,0.8914,0.8984,0.9023,0.9035,0.9111,0.9138,0.921,0.9238,0.9287,0.9387,0.9433,0.9469,0.952,0.9538,0.9538,0.9547,0.9585,0.9589,0.9593,0.961,0.9616,0.9543,0.9543,0.9543,0,0.8762,0.8847,0.8893,0.8949,0.8989,0.9024,0.9078,0.912,0.9205,0.9231,0.9229,0.9355,0.9402,0.9483,0.9496,0.9524,0.954,0.9529,0.9585,0.9589,0.9594,0.9611,0.9617,0.9542,0.9542,0.9542,0.9542,0,0.8837,0.8896,0.893,0.9011,0.9055,0.9109,0.9163,0.9201,0.9225,0.9264,0.9336,0.9394,0.9463,0.9485,0.951,0.957,0.9568,0.9575,0.9571,0.9597,0.9614,0.9621,0.9541,0.9542,0.9542,0.9542,0,0,0.8855,0.8961,0.8973,0.901,0.909,0.9135,0.9191,0.926,0.9291,0.9348,0.9396,0.9479,0.9486,0.9527,0.9557,0.959,0.9626,0.9593,0.9596,0.9597,0.9695,0.9688,0.9695,0.9639,0.964,0.9641,0.9689,0,0.8899,0.9002,0.9044,0.9126,0.918,0.9214,0.9263,0.9317,0.9355,0.9405,0.9447,0.9505,0.951,0.9535,0.9569,0.9614,0.9646,0.9612,0.9683,0.9685,0.9664,0.9704,0.9698,0.974,0.9696,0.9697,0.9698,0,0.8965,0.9022,0.911,0.9182,0.9207,0.925,0.9315,0.9364,0.9425,0.945,0.9496,0.9524,0.9583,0.9576,0.9658,0.9633,0.9665,0.9692,0.9694,0.9702,0.9692,0.9712,0.9755,0.9761,0.9709,0.9708,0.9708,0,0.8968,0.9067,0.9133,0.9163,0.925,0.9279,0.9316,0.9377,0.9415,0.9472,0.9497,0.956,0.9595,0.9643,0.9687,0.9678,0.9764,0.9761,0.9786,0.9785,0.9802,0.98,0.985,0.9824,0.9824,0.9824,0.9823,0,0.9012,0.9064,0.9135,0.9175,0.9234,0.9282,0.9339,0.9379,0.9432,0.9479,0.9513,0.9557,0.9613,0.9664,0.9699,0.9761,0.9776,0.9798,0.9806,0.9794,0.9791,0.9815,0.9813,0.9825,0.9825,0.9825,0.9824,0,0.9025,0.9075,0.9148,0.9224,0.9244,0.9284,0.9349,0.9389,0.9428,0.9488,0.9504,0.9566,0.9627,0.9676,0.9757,0.978,0.9845,0.9855,0.9824,0.9829,0.985,0.9847,0.9916,0.9927,0.9894,0.9895,0.9895,0,0.905,0.9091,0.9171,0.9205,0.9242,0.9298,0.9337,0.9385,0.9425,0.9497,0.9528,0.9592,0.9645,0.9742,0.9793,0.9855,0.9866,0.9886,0.9875,0.9862,0.9865,0.9862,0.9866,0.9887,0.9887,0.9887,0.9887,0,0.9088,0.911,0.9166,0.923,0.9275,0.9328,0.9381,0.9407,0.9465,0.9508,0.9571,0.9613,0.9695,0.9757,0.9824,0.9862,0.9884,0.989,0.9899,0.9887,0.9867,0.9877,0.9826,0.9888,0.9888,0.9888,0.9888,0.9888,0.9107,0.9145,0.9207,0.9267,0.9312,0.9361,0.9402,0.9446,0.95,0.9571,0.9596,0.9661,0.9721,0.9813,0.9851,0.9902,0.9903,0.9917,0.992,0.9922,0.992,0.9859,0.9914,0.9914,0.9914,0.9914,0.9914,0,0.9146,0.9188,0.9243,0.9316,0.9363,0.9381,0.944,0.9478,0.9535,0.9589,0.9641,0.9714,0.9774,0.9831,0.9894,0.9924,0.9935,0.9939,0.9937,0.9945,0.9915,0.9901,0.9928,0.9928,0.9928,0.9928,0.9928,0.9928,0.9172,0.9236,0.9266,0.9352,0.9394,0.9458,0.949,0.9535,0.9579,0.9658,0.9709,0.9745,0.98,0.9867,0.9924,0.9939,0.996,0.9961,0.9978,0.9949,0.9947,0.9945,0.9932,0.9965,0.9965,1.0003,1.0003,1.0004]},{"header":{"parameterUnit":"m.s-1","parameterCategory":1,"la1":30.2991,"la2":30.254,"lo1":-89.0895,"lo2":-89.0444,"dy":0.0017,"dx":0.0017,"nx":28,"ny":28,"refTime":"2025-03-23T21:00:00:Z","depth":0,"parameterNumber":3,"parameterNumberName":"V-component_of_WINDS"},"data":[0,0,0,0,0,0,0,0,0,0,0,0,0,0,0,0,0,0,0,0,0,0,0,0,0,0,0,0,0,0,0,0,0,0,0,0,0,0,0,0,0,0,0,0,0,0,0,0,0,0,0,0,0,0,0,0,0,0,2.2012,2.2011,0,2.1921,2.192,2.1919,2.1857,2.1856,2.1856,2.1855,2.1755,2.1753,2.175,0,0,0,0,0,0,0,0,0,0,0,0,0,2.2126,2.2124,2.2012,2.2011,2.201,2.1921,2.192,2.1918,2.1857,2.1856,2.1856,2.1855,2.1755,2.1753,2.175,0,0,0,0,0,0,0,0,0,0,0,0,0,2.206,2.2124,2.2013,2.1969,2.1964,2.1921,2.192,2.1918,2.1857,2.1856,2.1856,2.1855,2.1756,2.1753,2.175,2.1741,0,0,2.1739,2.1738,0,0,0,0,0,0,0,0,2.2064,2.2056,2.1976,2.1972,2.1966,2.19,2.1923,2.1859,2.1857,2.1897,2.1855,2.1855,2.1803,2.1796,2.178,2.1737,2.1732,2.1739,2.1737,2.1735,2.1734,0,0,0,0,0,0,0,2.2068,2.2059,2.1976,2.1975,2.1969,2.1951,2.1941,2.191,2.1855,2.1894,2.1889,2.1879,2.18,2.1783,2.1777,2.1731,2.1739,2.1736,2.1734,2.1733,2.1673,2.1674,0,0,0,0,0,0,2.2081,2.2063,2.1979,2.1973,2.2015,2.195,2.1938,2.1922,2.1855,2.1844,2.188,2.1877,2.1789,2.1781,2.1773,2.1758,2.1735,2.1732,2.173,2.1673,2.1673,2.1674,0,0,0,0,0,0,2.2083,2.2074,2.1983,2.2017,2.2004,2.1948,2.193,2.192,2.1903,2.1845,2.1834,2.1874,2.1788,2.1778,2.175,2.1753,2.1731,2.1728,2.1672,2.1673,2.1673,2.1728,0,0,0,0,0,0,2.2087,2.2075,2.2074,2.2018,2.2003,2.1963,2.193,2.1919,2.1898,2.1893,2.1836,2.1825,2.1787,2.1755,2.1746,2.1748,2.1725,2.1671,2.1672,2.1673,2.1726,2.1731,2.1735,0,0,0,0,0,2.2091,2.2092,2.2074,2.2064,2.2,2.1964,2.1955,2.1913,2.1899,2.1895,2.1857,2.1827,2.1754,2.1753,2.1742,2.1743,2.1671,2.1672,2.1673,2.1724,2.173,2.1735,0,0,0,0,0,0,2.2148,2.2083,2.2063,2.2046,2.2011,2.1954,2.1948,2.1921,2.1888,2.1884,2.1831,2.1818,2.1795,2.1766,2.1765,2.173,2.1709,2.1708,2.1751,2.1756,2.176,2.1768,2.1722,0,0,0,0,0,2.2159,2.2137,2.2081,2.2071,2.2055,2.2005,2.1987,2.1958,2.1919,2.1903,2.1863,2.1824,2.1792,2.1772,2.1739,2.1721,2.1706,2.1716,2.172,2.1724,2.1724,2.171,2.1713,2.1677,2.1677,2.1677,0,0,2.218,2.2142,2.2132,2.2081,2.2051,2.2028,2.1993,2.197,2.1951,2.1899,2.187,2.1839,2.1792,2.1768,2.1755,2.1743,2.1731,2.1726,2.1729,2.1727,2.1711,2.1715,2.1718,2.1678,2.1678,2.1678,0,0,2.2207,2.2177,2.2165,2.2135,2.209,2.2056,2.2054,2.2,2.1978,2.1948,2.1908,2.1883,2.183,2.1798,2.1774,2.1787,2.1757,2.1777,2.1801,2.1788,2.1791,2.1793,2.1796,2.1798,2.1777,2.1777,2.1777,0,2.2239,2.2205,2.2162,2.2141,2.2119,2.2072,2.2058,2.203,2.1976,2.1961,2.1948,2.1879,2.1844,2.1811,2.1814,2.1796,2.1789,2.1784,2.1794,2.1796,2.1797,2.18,2.1801,2.178,2.178,2.1779,2.1779,0,2.2246,2.2222,2.2217,2.2168,2.2145,2.2128,2.2079,2.2061,2.2033,2.1999,2.1968,2.1924,2.1881,2.1871,2.1843,2.1833,2.1827,2.1805,2.1782,2.1804,2.1806,2.1806,2.1784,2.1783,2.1782,2.1781,0,0,2.2308,2.2234,2.2233,2.221,2.2155,2.2135,2.2113,2.2073,2.2058,2.2021,2.2,2.1955,2.1934,2.1908,2.1874,2.1863,2.1874,2.1842,2.184,2.1849,2.1859,2.1876,2.1878,2.1854,2.1854,2.1854,2.1862,0,2.2327,2.229,2.2249,2.2225,2.2202,2.2155,2.2136,2.2099,2.2067,2.204,2.2002,2.1971,2.1947,2.193,2.1916,2.1876,2.1875,2.1874,2.1832,2.1831,2.1846,2.1879,2.1897,2.1908,2.1863,2.1863,2.1863,0,2.2345,2.2312,2.2287,2.2233,2.2221,2.2206,2.2164,2.214,2.2095,2.2072,2.2042,2.2007,2.1979,2.1959,2.1918,2.1919,2.1898,2.1875,2.1875,2.1869,2.1849,2.1874,2.191,2.1912,2.1863,2.1863,2.1863,0,2.2393,2.2341,2.2319,2.23,2.2237,2.2227,2.2199,2.2155,2.2133,2.2095,2.208,2.2039,2.2016,2.1984,2.1938,2.1928,2.1901,2.1878,2.1879,2.1881,2.1877,2.1878,2.191,2.1864,2.1863,2.1863,2.1863,0,2.2418,2.2404,2.234,2.2326,2.2308,2.2259,2.2241,2.2209,2.2169,2.2146,2.2102,2.2081,2.2021,2.1992,2.1954,2.1926,2.1916,2.1894,2.1885,2.1899,2.1901,2.1885,2.1883,2.1864,2.1864,2.1864,2.1864,0,2.2469,2.2425,2.2398,2.234,2.2325,2.2314,2.2263,2.2246,2.2211,2.2182,2.2172,2.2116,2.2078,2.2029,2.1975,2.195,2.1926,2.1911,2.1942,2.1936,2.194,2.1941,2.1964,2.1963,2.1918,2.1918,2.1919,0,2.2489,2.2477,2.2418,2.2401,2.2376,2.2348,2.2325,2.2275,2.2253,2.22,2.2189,2.2149,2.2115,2.2057,2.2009,2.1967,2.195,2.1961,2.1944,2.1958,2.195,2.1951,2.1949,2.1966,2.1967,2.1967,2.1968,0,2.2528,2.2507,2.2477,2.244,2.2414,2.2381,2.2346,2.2334,2.2276,2.2252,2.2215,2.2188,2.2134,2.2094,2.2045,2.2013,2.198,2.1973,2.1971,2.1986,2.2004,2.1994,2.1954,2.1973,2.1973,2.1972,2.1972,2.1972,2.2563,2.255,2.2507,2.2475,2.2443,2.2411,2.2392,2.2354,2.2323,2.2277,2.2248,2.2212,2.2164,2.2096,2.2066,2.2034,2.2021,2.2018,2.2018,2.2018,2.2022,2.2009,2.2025,2.2025,2.2024,2.2024,2.2024,0,2.26,2.257,2.2541,2.2494,2.2467,2.244,2.2399,2.2378,2.2347,2.2307,2.2274,2.223,2.219,2.2138,2.2094,2.2078,2.2062,2.2068,2.2069,2.2062,2.2037,2.2043,2.2083,2.2083,2.2083,2.2083,2.2083,2.2083,2.2617,2.2593,2.2566,2.2524,2.2493,2.2459,2.2437,2.2406,2.2374,2.2327,2.2295,2.2262,2.2216,2.2168,2.2129,2.2114,2.2099,2.2111,2.2092,2.2069,2.2064,2.2059,2.2064,2.2108,2.2108,2.2119,2.2119,2.212]}]]